Regional Weather Roundup
Issued by NWS

Home | Current Version | Previous Version | Graphics & Text | Print | Product List | Glossary On
Versions: 1 2 3 4 5 6 7 8 9 10 11 12 13 14 15 16 17 18 19 20 21 22 23 24 25 26 27 28 29 30 31 32 33 34 35 36 37 38 39 40 41 42 43 44 45 46 47 48 49 50
000
ASUS43 KLOT 050821
RWRIL

ILLINOIS REGIONAL WEATHER ROUNDUP
NATIONAL WEATHER SERVICE CHICAGO/ROMEOVILLE IL
300 AM CDT TUE MAY 05 2015

NOTE: "FAIR" INDICATES FEW OR NO CLOUDS BELOW 12,000 FEET WITH NO
SIGNIFICANT WEATHER AND/OR OBSTRUCTIONS TO VISIBILITY.

* THESE STATIONS ARE NOT UNDER NWS QUALITY CONTROL. THEY ALSO MAY NOT
  REPORT WEATHER SUCH AS PRECIPITATION OR FOG.

ILZ001-002-007-009-015-016-024-050900-
NORTHWEST ILLINOIS

CITY           SKY/WX    TMP DP  RH WIND       PRES   REMARKS
MOLINE         RAIN      61  59  93 E13       30.11F FOG
STERLING*      CLOUDY    54  50  87 E18       30.15S
$$

ILZ003-004-008-010-011-017-018-050900-
NORTH CENTRAL ILLINOIS

CITY           SKY/WX    TMP DP  RH WIND       PRES   REMARKS
ROCKFORD       HVY RAIN  51  47  86 E5        30.21R FOG
FREEPORT*      HVY RAIN  50  48  95 E9        30.19S
ROCHELLE*      HVY RAIN  51  49  93 N5        30.20R
DE KALB*       RAIN      49  46  92 NE8       30.19S
PERU*          TSTM      55  52  91 NE13      30.15S
$$

ILZ005-006-012>014-019>023-050900-
NORTHEAST ILLINOIS

CITY           SKY/WX    TMP DP  RH WIND       PRES   REMARKS
CHICAGO-OHARE  LGT RAIN  52  46  80 NE7       30.18S
CHICAGO-MIDWAY LGT RAIN  55  47  74 NE10      30.16F
AURORA         TSTM      52  46  80 NE9       30.17R
LANSING*       RAIN      54  51  90 E3        30.17F
JOLIET*        CLOUDY    58  54  89 NE6       30.14F
WAUKEGAN       LGT RAIN  50  47  89 N5        30.19F
DUPAGE AIRPORT RAIN      52  46  80 N7        30.17S
KANKAKEE*      CLOUDY    61  61  98 E7        30.14F FOG
WHEELING       LGT RAIN  51  46  83 CALM      30.20S
MORRIS*        CLOUDY    58  55  89 NE5       30.10F
ROMEOVILLE*    CLOUDY    54  48  80 NE12      30.14F
NORTHERLY ISL    N/A     51  44  77 N3          N/A
$$

LMZ740>746-050900-
SOUTHERN LAKE MICHIGAN

STATION/POSITION SKY/WX   TEMP    WIND        PRES    VSBY  WAVE
                          AIR SEA DIR/SP/G                  HT/PER
                          (F)     (DEG/KT/KT) (MB)    (MI)  (FT/S)
HARRISON CRIB              51     360/  8/  9   N/A
BURNHAM HARBOR             50      10/  5/  6   N/A
CALUMET HARBOR             51      CALM  /  2   N/A
BURNS HARBOR               55     250/  4/ 26 1022.0S
MICHIGAN CITY              52     220/ 10/ 11   N/A
MICHIGAN CITY 6N           50 50  300/ 12/ 17   N/A           1
ST. JOSEPH                 57 50  110/  6/  6   N/A           0
$$

ILZ025>027-034>036-040-047-049-050-058-095>099-050900-
WEST-CENTRAL ILLINOIS

CITY           SKY/WX    TMP DP  RH WIND       PRES   REMARKS
QUINCY         CLOUDY    64  61  90 E7        30.09F
GALESBURG*     TSTM      63  62  97 E6        30.11F
MACOMB*        CLOUDY    63  61  94 N7        30.13F
JACKSONVILLE*  CLOUDY    73  56  56 SW8       30.10S
PITTSFIELD*    CLOUDY    72  56  58 NW9       30.13R
$$

ILZ028>032-037-038-041>044-048-051>054-059>061-050900-
CENTRAL ILLINOIS

CITY           SKY/WX    TMP DP  RH WIND       PRES   REMARKS
PONTIAC        CLOUDY    64  63  97 SE8       30.10F
BLOOMINGTON    CLOUDY    64  61  90 S12       30.12R
DECATUR        CLOUDY    69  56  62 S12       30.12S
PEORIA         TSTM      66  62  87 N7        30.09S
LACON*         CLOUDY    61  59  94 N6        30.13R FOG
LINCOLN*       CLOUDY    65  61  86 S6        30.09S
SPRINGFIELD    CLOUDY    70  55  59 S10       30.11R
TAYLORVILLE    CLOUDY    64  54  68 S13       30.13R
$$

ILZ033-039-045-046-055>057-062-063-050900-
EAST-CENTRAL ILLINOIS

CITY           SKY/WX    TMP DP  RH WIND       PRES   REMARKS
CHAMPAIGN      CLOUDY    62  59  90 E5        30.14S
DANVILLE*      MOCLDY    60  59  94 E5        30.13F
RANTOUL*       CLOUDY    64  62  92 E8        30.13S FOG
MATTOON        MOCLDY    68  54  60 S10       30.14S
PARIS*         MOCLDY    68  57  67 SW12      30.15S
$$

ILZ079-100>102-050900-
SOUTHWEST ILLINOIS

CITY           SKY/WX    TMP DP  RH WIND       PRES   REMARKS
ALTON          MOCLDY    67  51  56 S8        30.15S
BELLEVILLE     MOCLDY    65  56  71 VRB1      30.14S
CAHOKIA*       MOCLDY    70  54  56 VRB6      30.14S
SPARTA*        MOCLDY    65  53  63 S5        30.18S
$$

ILZ064>066-069>071-074>076-080>082-084>086-088>090-092>094-050900-
SOUTH-CENTRAL ILLINOIS

CITY           SKY/WX    TMP DP  RH WIND       PRES   REMARKS
CARBONDALE     PTCLDY    59  52  77 CALM      30.18R
CAIRO*         CLEAR     66  53  61 S5        30.18S
EFFINGHAM*     PTCLDY    67  50  55 S6        30.18R
MARION         CLEAR     63  54  72 CALM      30.19R
MT. VERNON     PTCLDY   N/A N/A N/A CALM      30.18S
CENTRALIA*     PTCLDY    63  52  69 S7        30.17R
SALEM*         PTCLDY    68  54  59 S8        30.17S
METROPOLIS*    CLEAR     62  54  75 CALM      30.19R
$$

ILZ067-068-072-073-078-083-087-091-050900-
SOUTHEAST ILLINOIS

CITY           SKY/WX    TMP DP  RH WIND       PRES   REMARKS
LAWRENCEVILLE  MOCLDY    61  55  81 S6        30.18S
FLORA*         PTCLDY    62  55  76 S6        30.18S
FAIRFIELD*     MOCLDY    63  56  78 CALM      30.17S
HARRISBURG*    CLEAR     60  56  87 CALM      30.20R
ROBINSON*      PTCLDY    67  54  61 SW8       30.17F
CARMI*         PTCLDY    61  51  70 S5        30.19R
$$

ABBREVIATIONS USED IN REMARKS
   TC - TEMPERATURE IN CELSIUS
  WCI - WIND CHILL INDEX
   HX - HEAT INDEX
  VSB - VISIBILITY
$$



USA.gov is the U.S. government's official web portal to all federal, state and local government web resources and services.